Shawano, WI

5:57 AM CST on February 13, 2016 (GMT -0600)
Shawano

Weather History for KEZS - January, 2014

Change the Weather History Date:

Tuesday, January 28, 2014

  Actual Average (KGRB) Record (KGRB)
Temperature  
Mean Temperature -6 °F 17 °F  
Max Temperature 2 °F 25 °F 46 °F (1914)
Min Temperature -15 °F 9 °F -21 °F (1966)
Degree Days  
Heating Degree Days 72 48  
Month to date heating degree days 1358  
Since 1 July heating degree days 4448  
Cooling Degree Days 0 0  
Month to date cooling degree days 0  
Year to date cooling degree days 0  
Moisture  
Dew Point -18 °F    
Average Humidity 55    
Maximum Humidity 67    
Minimum Humidity 44    
Precipitation  
Precipitation 0.00 in 0.03 in 0.54 in (2006)
Month to date precipitation 1.03  
Year to date precipitation 1.03  
Snow  
Snow 0.00 in 0.50 in 5.40 in (1994)
Month to date snowfall 11.8  
Since 1 July snowfall 29.1  
Snow Depth -    
Sea Level Pressure  
Sea Level Pressure 30.15 in    
Wind  
Wind Speed 9 mph (WSW)    
Max Wind Speed 18 mph    
Max Gust Speed 28 mph    
Visibility 10 miles    
Events      
T = Trace of Precipitation, MM = Missing Value Source: NWS Daily Summary

Daily Weather History Graph

Daily Weather History Graph

Search for Another Location

Airport or City:

Trip Planner

Search our weather history database for the weather conditions in past years. The results will help you decide how hot, cold, wet, or windy it might be!

Date:

Astronomy

Jan. 28, 2014 Rise Set
Actual Time 7:17 AM CST 4:57 PM CST
Civil Twilight 6:46 AM CST 5:28 PM CST
Nautical Twilight 6:11 AM CST 6:03 PM CST
Astronomical Twilight 5:36 AM CST 6:38 PM CST
Moon 5:00 AM CST (1/28) 2:45 PM CST (1/28)
Length of Visible Light 10h 42m
Length of Day
9h 39m
Waning Crescent, 7% of the Moon is Illuminated
Jan 28
Waning Crescent
Jan 30
New
Feb 6
First Quarter
Feb 14
Full
Feb 22
Last Quarter

Hourly Weather History & Observations

Time (CST) Temp. Windchill Dew Point Humidity Pressure Visibility Wind Dir Wind Speed Gust Speed Precip Events Conditions
12:15 AM -10.7 °F -27.2 °F -22.0 °F 57% 30.26 in 10.0 mi West 8.1 mph - N/A   Clear
12:35 AM -10.5 °F -25.6 °F -21.6 °F 58% 30.25 in 10.0 mi West 6.9 mph - N/A   Clear
12:55 AM -11.0 °F -28.8 °F -22.0 °F 58% 30.24 in 10.0 mi West 9.2 mph - N/A   Clear
1:15 AM -10.8 °F -26.0 °F -22.0 °F 58% 30.24 in 10.0 mi West 6.9 mph - N/A   Clear
1:35 AM -10.8 °F -24.4 °F -22.2 °F 57% 30.24 in 10.0 mi West 5.8 mph - N/A   Clear
1:55 AM -11.2 °F -26.4 °F -22.2 °F 58% 30.25 in 10.0 mi West 6.9 mph - N/A   Clear
2:15 AM -11.4 °F -26.7 °F -22.2 °F 59% 30.24 in 10.0 mi West 6.9 mph - N/A   Clear
2:35 AM -11.6 °F -21.0 °F -22.2 °F 59% 30.23 in 10.0 mi West 3.5 mph - N/A   Clear
2:55 AM -11.9 °F -25.7 °F -22.4 °F 60% 30.23 in 10.0 mi WSW 5.8 mph - N/A   Clear
3:15 AM -12.1 °F -27.5 °F -22.2 °F 61% 30.23 in 10.0 mi WSW 6.9 mph - N/A   Clear
3:35 AM -12.1 °F -25.9 °F -22.2 °F 61% 30.24 in 10.0 mi WSW 5.8 mph - N/A   Clear
3:55 AM -12.5 °F -26.3 °F -22.2 °F 62% 30.23 in 10.0 mi WSW 5.8 mph - N/A   Clear
4:15 AM -13.9 °F -28.1 °F -22.9 °F 64% 30.23 in 10.0 mi SW 5.8 mph - N/A   Clear
4:35 AM -13.9 °F -23.7 °F -22.9 °F 64% 30.23 in 10.0 mi SW 3.5 mph - N/A   Clear
4:55 AM -14.3 °F -26.5 °F -22.9 °F 65% 30.23 in 10.0 mi SW 4.6 mph - N/A   Clear
5:15 AM -14.4 °F -28.7 °F -22.9 °F 66% 30.22 in 10.0 mi WSW 5.8 mph - N/A   Clear
5:35 AM -14.8 °F -30.8 °F -22.9 °F 67% 30.22 in 10.0 mi WSW 6.9 mph - N/A   Clear
5:55 AM -14.8 °F -30.8 °F -23.1 °F 66% 30.22 in 10.0 mi WSW 6.9 mph - N/A   Clear
6:15 AM -15.0 °F -31.0 °F -23.3 °F 66% 30.22 in 10.0 mi WSW 6.9 mph - N/A   Clear
6:35 AM -15.0 °F -31.0 °F -23.1 °F 67% 30.23 in 10.0 mi WSW 6.9 mph - N/A   Clear
6:55 AM -15.2 °F -31.2 °F -23.3 °F 67% 30.23 in 10.0 mi WSW 6.9 mph - N/A   Clear
7:15 AM -15.3 °F -31.4 °F -23.6 °F 66% 30.23 in 10.0 mi WSW 6.9 mph - N/A   Clear
7:35 AM -15.5 °F -31.6 °F -23.6 °F 67% 30.23 in 10.0 mi WSW 6.9 mph - N/A   Clear
7:55 AM -14.8 °F -33.5 °F -23.1 °F 66% 30.24 in 10.0 mi WSW 9.2 mph - N/A   Clear
8:15 AM -14.1 °F -32.6 °F -23.1 °F 64% 30.23 in 10.0 mi WSW 9.2 mph - N/A   Clear
8:35 AM -13.4 °F -31.7 °F -22.9 °F 62% 30.23 in 10.0 mi WSW 9.2 mph - N/A   Clear
8:55 AM -12.6 °F -31.9 °F -22.2 °F 63% 30.23 in 10.0 mi West 10.4 mph 18.4 mph N/A   Clear
9:15 AM -11.9 °F -32.0 °F -21.8 °F 61% 30.23 in 10.0 mi WSW 11.5 mph 18.4 mph N/A   Clear
9:35 AM -11.2 °F -32.1 °F -21.5 °F 60% 30.23 in 10.0 mi WSW 12.7 mph 17.3 mph N/A   Clear
9:55 AM -9.9 °F -27.5 °F -20.7 °F 59% 30.23 in 10.0 mi WSW 9.2 mph - N/A   Clear
10:15 AM -8.3 °F -26.6 °F -20.2 °F 56% 30.23 in 10.0 mi WSW 10.4 mph - N/A   Clear
10:35 AM -7.1 °F -25.9 °F -19.7 °F 54% 30.23 in 10.0 mi WSW 11.5 mph 16.1 mph N/A   Clear
10:55 AM -5.8 °F -22.4 °F -19.1 °F 53% 30.21 in 10.0 mi WSW 9.2 mph - N/A   Clear
11:15 AM -4.4 °F -21.6 °F -18.6 °F 51% 30.20 in 10.0 mi WSW 10.4 mph 17.3 mph N/A   Clear
11:35 AM -3.5 °F -20.5 °F -18.4 °F 49% 30.19 in 10.0 mi WSW 10.4 mph - N/A   Clear
11:55 AM -2.2 °F -18.9 °F -17.5 °F 48% 30.17 in 10.0 mi WSW 10.4 mph - N/A   Clear
12:15 PM -0.9 °F -21.2 °F -16.8 °F 47% 30.16 in 10.0 mi WSW 16.1 mph 19.6 mph N/A   Clear
12:35 PM -0.6 °F -19.4 °F -16.4 °F 47% 30.15 in 10.0 mi West 13.8 mph 18.4 mph N/A   Clear
12:55 PM -0.4 °F -16.7 °F -16.6 °F 46% 30.14 in 10.0 mi WSW 10.4 mph 18.4 mph N/A   Clear
1:15 PM 0.1 °F -16.0 °F -16.2 °F 46% 30.13 in 10.0 mi West 10.4 mph 17.3 mph N/A   Clear
1:35 PM 0.5 °F -15.6 °F -16.1 °F 46% 30.11 in 10.0 mi WSW 10.4 mph 19.6 mph N/A   Clear
1:55 PM 1.0 °F -15.8 °F -15.7 °F 45% 30.10 in 10.0 mi WSW 11.5 mph 18.4 mph N/A   Clear
2:15 PM 1.2 °F -17.1 °F -15.9 °F 45% 30.10 in 10.0 mi WSW 13.8 mph 19.6 mph N/A   Clear
2:35 PM 1.4 °F -17.6 °F -15.3 °F 46% 30.10 in 10.0 mi WSW 15.0 mph 23.0 mph N/A   Clear
2:55 PM 1.8 °F -18.4 °F -15.5 °F 44% 30.10 in 10.0 mi West 17.3 mph 27.6 mph N/A   Clear
3:15 PM 1.8 °F -17.1 °F -15.2 °F 45% 30.09 in 10.0 mi West 15.0 mph 25.3 mph N/A   Clear
3:35 PM 2.1 °F -14.4 °F -14.8 °F 45% 30.09 in 10.0 mi WSW 11.5 mph 16.1 mph N/A   Clear
3:55 PM 1.9 °F -16.9 °F -14.8 °F 46% 30.09 in 10.0 mi West 15.0 mph 24.2 mph N/A   Clear
4:15 PM 1.8 °F -14.0 °F -14.4 °F 47% 30.08 in 10.0 mi WSW 10.4 mph 17.3 mph N/A   Clear
4:35 PM 1.8 °F -15.7 °F -14.3 °F 47% 30.08 in 10.0 mi West 12.7 mph 23.0 mph N/A   Clear
4:55 PM 1.4 °F -16.1 °F -13.9 °F 49% 30.08 in 10.0 mi WSW 12.7 mph 23.0 mph N/A   Clear
5:15 PM 1.2 °F -19.6 °F -13.9 °F 49% 30.07 in 10.0 mi West 18.4 mph 23.0 mph N/A   Mostly Cloudy
5:35 PM 1.0 °F -15.8 °F -13.9 °F 50% 30.07 in 10.0 mi WSW 11.5 mph 20.7 mph N/A   Scattered Clouds
5:55 PM 0.9 °F -16.0 °F -13.9 °F 50% 30.07 in 10.0 mi WSW 11.5 mph 19.6 mph N/A   Mostly Cloudy
6:15 PM 0.7 °F -17.0 °F -13.9 °F 50% 30.07 in 10.0 mi WSW 12.7 mph 24.2 mph N/A   Mostly Cloudy
6:35 PM 0.9 °F -16.0 °F -13.7 °F 50% 30.06 in 10.0 mi WSW 11.5 mph 17.3 mph N/A   Overcast
6:55 PM 0.5 °F -16.5 °F -14.1 °F 50% 30.06 in 10.0 mi WSW 11.5 mph 18.4 mph N/A   Scattered Clouds
7:15 PM 0.5 °F -17.3 °F -13.9 °F 51% 30.05 in 10.0 mi WSW 12.7 mph 20.7 mph N/A   Scattered Clouds
7:35 PM 0.3 °F -16.7 °F -13.9 °F 51% 30.04 in 10.0 mi WSW 11.5 mph 20.7 mph N/A   Scattered Clouds
7:55 PM 0.1 °F -19.2 °F -14.1 °F 51% 30.05 in 10.0 mi WSW 15.0 mph 19.6 mph N/A   Clear
8:15 PM -0.0 °F -20.1 °F -14.1 °F 52% 30.04 in 10.0 mi West 16.1 mph 24.2 mph N/A   Clear
8:35 PM -0.4 °F -18.4 °F -14.3 °F 52% 30.03 in 10.0 mi WSW 12.7 mph 21.9 mph N/A   Clear
8:55 PM -0.8 °F -17.2 °F -14.1 °F 53% 30.04 in 10.0 mi West 10.4 mph 19.6 mph N/A   Clear
9:15 PM -0.8 °F -18.0 °F -13.9 °F 54% 30.03 in 10.0 mi WSW 11.5 mph 21.9 mph N/A   Clear
9:35 PM -1.3 °F -19.6 °F -13.9 °F 55% 30.03 in 10.0 mi West 12.7 mph 19.6 mph N/A   Clear
9:55 PM -1.3 °F -18.7 °F -13.9 °F 55% 30.02 in 10.0 mi West 11.5 mph 19.6 mph N/A   Scattered Clouds
10:15 PM -1.3 °F -20.3 °F -13.5 °F 56% 30.02 in 10.0 mi West 13.8 mph 20.7 mph N/A   Scattered Clouds
10:35 PM -1.7 °F -20.0 °F -13.5 °F 57% 30.01 in 10.0 mi West 12.7 mph 19.6 mph N/A   Clear
10:55 PM -2.0 °F -20.5 °F -13.7 °F 58% 30.01 in 10.0 mi West 12.7 mph 19.6 mph N/A   Scattered Clouds
11:15 PM -2.2 °F -19.9 °F -13.5 °F 59% 30.01 in 10.0 mi West 11.5 mph 17.3 mph N/A   Scattered Clouds
11:35 PM -2.2 °F -19.9 °F -13.4 °F 59% 30.00 in 10.0 mi WSW 11.5 mph 18.4 mph N/A   Clear
11:55 PM -2.4 °F -20.1 °F -13.4 °F 60% 30.00 in 10.0 mi West 11.5 mph 17.3 mph N/A   Clear